Wind_Speed
6 5 4 4 4 3 5 6 8 9 13 13 13 14 14 12 10 8 6 5 6 7 7 6 6 6 5 5 4 3 3 3 3 4 4 4 4 4 4 4 4 4 4 4 3 3 3 3 2
6 5 4 4 4 5 6 7 9 13 15 15 15 14 13 12 9 8 7 7 7 8 8 7 7 7 7 6 5 4 4 4 4 4 4 5 5 5 5 5 5 5 5 5 5 5 4 4 3
6 5 4 3 3 5 7 9 11 16 16 18 18 17 14 11 8 7 7 7 7 7 8 9 8 8 8 7 6 5 5 5 4 4 5 5 6 6 6 6 6 6 6 6 6 6 5 5 4
6 4 3 3 3 6 7 10 15 18 19 19 19 18 14 10 9 8 7 8 8 8 9 10 10 10 9 9 8 7 6 6 5 5 5 6 6 7 7 7 7 7 7 7 7 7 6 6 6
6 5 4 4 4 6 8 11 16 18 18 19 18 17 15 12 10 9 8 8 8 9 10 11 12 11 12 10 9 8 7 6 5 5 5 6 7 8 8 8 8 8 8 8 8 8 8 8 8
6 5 6 6 6 7 9 12 15 19 20 19 18 16 15 12 11 10 10 9 9 10 11 12 13 12 13 12 11 9 8 7 6 6 6 6 7 8 8 9 9 9 9 9 9 9 9 9 9
6 6 7 6 5 7 9 13 17 20 21 21 19 17 16 14 12 10 10 10 10 11 12 13 14 14 14 13 12 11 9 7 7 6 7 7 8 9 9 9 9 10 9 10 10 10 10 10 10
7 8 8 6 4 7 10 14 18 20 21 21 19 18 18 15 13 12 11 11 11 12 13 14 14 15 15 15 14 12 10 9 8 8 8 8 9 9 10 10 11 11 10 10 10 10 11 11 10
8 8 8 7 5 7 10 14 18 20 21 20 20 19 18 16 15 14 13 12 13 13 15 16 15 15 15 15 14 13 11 10 9 9 9 9 9 10 10 11 11 11 11 11 11 12 12 11 10
8 8 8 7 8 8 10 14 18 20 20 19 20 20 18 18 16 14 13 13 14 15 16 17 17 16 16 15 15 14 13 11 10 10 10 10 10 11 11 11 12 12 12 12 12 12 12 11 10
9 8 8 8 8 8 10 13 16 18 19 19 20 20 19 19 18 15 15 15 15 15 17 18 19 18 17 16 15 14 14 13 11 11 10 11 11 11 11 11 11 11 11 11 11 10 11 10 10
10 10 8 7 7 9 10 12 14 16 17 18 19 18 19 19 19 17 15 14 15 16 18 19 20 20 19 18 16 15 14 14 13 12 12 11 11 11 11 10 9 9 9 8 8 8 8 9 8
10 9 7 7 7 9 10 11 13 14 16 18 20 20 20 19 18 17 13 12 14 16 18 20 22 21 20 18 16 16 15 15 13 12 12 12 11 10 9 8 7 7 6 5 5 5 6 6 7
8 7 6 6 8 9 10 11 13 14 16 18 19 19 19 18 17 16 13 13 13 15 18 21 20 21 20 19 17 16 16 14 13 12 12 12 11 9 8 7 6 5 5 4 3 3 4 4 5
7 5 5 5 8 10 10 11 14 16 17 17 17 18 18 17 15 14 12 11 11 14 18 20 20 20 19 18 17 16 15 13 12 11 10 10 9 7 7 6 5 4 4 3 3 2 2 3 4
7 5 4 6 10 10 11 13 15 17 17 16 16 18 17 16 14 13 11 10 11 12 15 19 19 19 19 19 18 16 14 13 12 10 9 8 7 6 5 5 4 4 3 3 3 2 1 1 2
7 5 5 7 12 13 13 14 15 16 18 17 15 17 17 16 13 12 10 8 9 11 14 17 18 19 17 18 17 16 14 11 10 9 8 7 7 6 5 5 4 4 3 2 2 1 0 0 0
7 6 5 10 13 14 16 15 16 18 19 18 18 17 16 15 11 9 8 7 6 9 12 16 17 18 16 17 17 14 13 12 10 10 9 8 7 7 6 6 5 4 4 3 3 3 3 2 2
8 7 7 10 14 17 17 17 17 18 19 19 18 16 15 13 9 7 6 5 4 9 12 14 17 16 15 16 16 14 13 12 11 10 10 9 8 7 7 7 7 6 5 5 4 4 4 4 3
8 7 8 11 15 17 18 18 18 19 20 18 17 14 12 11 9 6 5 3 3 7 11 13 16 17 16 15 14 14 12 12 12 11 11 10 9 8 8 8 8 7 6 5 5 4 4 4 3
7 7 10 13 15 17 19 18 18 18 18 16 13 11 11 10 9 6 5 2 2 6 10 12 14 15 16 15 13 13 13 12 13 12 11 10 10 10 9 9 8 8 7 6 5 5 4 3 4
9 8 11 13 16 18 18 18 15 16 15 12 9 9 10 9 8 6 5 1 3 6 10 12 14 15 14 14 13 13 14 14 14 13 12 11 11 10 9 9 9 8 7 7 6 5 4 3 3
9 10 12 15 17 19 18 18 16 15 12 9 8 8 8 8 7 6 5 1 5 7 9 10 13 14 14 15 14 14 15 14 14 13 13 12 12 11 10 9 9 9 8 7 6 5 4 3 2
12 13 14 15 18 19 19 19 17 13 9 8 6 6 7 6 5 4 4 3 5 6 8 9 10 12 14 14 15 15 15 15 14 14 14 14 13 12 11 10 10 9 8 7 6 5 4 2 1
15 15 17 17 16 17 19 17 15 12 9 7 5 5 5 5 4 3 2 2 3 5 6 8 9 11 12 14 14 15 15 16 15 14 14 14 13 13 12 11 11 10 9 8 7 6 5 4 3
15 17 19 19 17 17 19 18 14 13 9 6 5 4 5 4 3 2 2 2 3 4 6 7 9 11 11 12 14 15 15 15 15 14 14 14 14 13 13 12 12 11 10 10 9 8 8 7 7
16 17 18 20 19 20 18 17 14 11 9 7 7 6 4 3 2 2 1 2 2 4 6 7 9 11 11 12 12 13 14 13 14 15 14 15 15 14 14 14 13 13 12 12 12 11 11 10 10
18 17 19 21 21 21 19 17 15 9 9 9 8 6 3 2 1 1 1 1 1 3 5 7 8 10 11 12 12 13 13 13 14 15 15 16 16 16 15 15 15 14 14 14 14 14 14 14 14
21 20 20 21 23 23 21 18 15 13 12 10 8 6 4 2 1 1 0 1 2 3 5 7 8 9 11 12 12 12 13 13 14 15 16 17 17 17 17 17 16 17 17 17 17 17 17 17 17
24 23 23 23 23 23 23 21 17 15 14 11 8 6 4 2 2 1 2 2 2 3 4 7 8 10 11 12 12 12 13 13 14 15 17 18 18 19 19 19 19 19 19 19 20 20 20 20 20
Wind_Direction
336 334 339 349 351 343 339 1 14 360 343 337 335 330 323 323 323 307 288 266 238 222 217 215 208 207 206 205 210 226 243 265 278 288 294 298 304 307 306 302 300 300 300 297 297 302 312 320 329
329 330 336 353 358 338 343 4 7 353 342 335 335 331 320 319 318 304 287 273 246 223 217 216 215 211 207 205 211 224 236 253 268 278 284 290 298 299 298 297 297 295 296 294 292 293 299 302 305
322 323 333 348 339 323 333 348 353 352 340 331 327 323 316 315 311 303 289 266 253 234 223 217 216 217 215 211 215 225 236 246 255 269 279 287 294 294 293 293 293 292 292 290 291 293 296 297 299
316 310 315 313 325 334 335 343 342 339 332 326 323 319 314 309 308 299 289 273 256 240 231 221 221 220 218 216 220 224 234 244 251 265 277 285 290 290 290 290 290 289 290 289 290 294 296 294 295
307 304 283 280 306 324 329 334 329 325 322 321 320 319 317 318 315 297 289 279 263 243 234 229 226 225 222 219 221 225 231 239 251 263 272 280 285 286 289 289 288 287 288 288 290 293 293 292 292
296 284 265 277 297 317 323 318 316 317 320 320 322 320 318 317 309 293 281 280 270 247 231 228 225 227 223 217 218 223 230 239 246 254 263 274 282 286 290 289 288 287 287 287 289 291 291 290 289
277 263 258 270 297 320 320 316 315 318 320 321 322 318 315 311 304 298 287 276 269 255 237 225 226 227 225 218 218 220 228 237 244 254 264 272 279 284 289 288 287 287 288 287 287 288 288 288 288
270 253 246 257 292 316 320 316 317 319 320 323 323 323 320 311 304 295 284 273 263 254 238 225 225 227 227 224 222 220 227 235 244 255 267 275 280 284 288 287 286 286 287 286 285 287 288 288 286
259 243 243 255 277 307 311 313 316 319 321 322 325 324 317 312 305 296 286 271 261 252 237 230 226 224 222 222 224 223 227 232 241 253 264 273 279 283 286 286 283 284 284 282 283 286 287 287 284
251 241 249 267 286 295 302 309 315 319 323 323 325 325 318 311 306 300 289 274 262 248 242 233 225 221 219 222 226 226 228 232 240 250 259 269 276 280 282 283 281 281 283 280 281 282 283 283 280
251 239 252 273 293 298 297 306 313 319 322 324 324 324 319 313 309 302 292 275 254 244 241 230 224 219 217 219 222 224 232 234 238 247 258 267 274 277 279 281 281 281 281 278 277 279 280 282 281
244 234 243 266 290 293 294 308 317 322 327 329 328 325 321 314 310 305 296 273 254 249 237 226 221 217 215 215 219 224 234 235 236 244 253 262 271 274 277 281 278 277 277 271 270 274 277 281 282
249 246 253 261 277 290 299 311 318 327 331 334 330 327 323 315 311 309 292 273 256 249 235 222 216 214 215 215 217 225 234 237 237 241 248 257 267 271 271 272 270 272 270 262 262 270 285 288 284
256 252 260 273 283 298 305 312 320 332 332 332 332 329 327 321 315 314 303 281 261 243 232 222 215 211 213 215 217 223 228 231 235 240 245 253 257 259 258 254 256 260 260 258 259 273 287 292 292
247 254 267 291 305 307 315 321 329 332 328 326 327 329 328 326 318 315 305 285 261 240 228 214 211 209 209 212 216 222 224 228 234 237 240 247 247 244 244 241 232 238 240 246 251 260 281 297 304
242 247 273 318 332 325 325 328 333 333 329 323 323 325 326 325 321 316 303 280 254 238 218 208 208 208 210 210 213 218 219 226 230 233 235 234 230 230 230 217 213 213 213 222 225 232 272 305 313
238 251 293 323 330 328 328 332 333 331 329 326 324 326 326 322 322 314 304 285 261 227 208 202 206 210 208 206 208 212 218 225 228 226 218 215 215 215 211 201 199 190 182 177 182 179 159 52 1
238 249 296 319 322 320 319 322 326 325 326 326 326 324 327 324 326 317 307 293 257 210 209 208 202 203 205 207 209 212 218 222 220 212 206 202 205 203 199 192 186 173 164 157 151 133 115 101 82
245 260 296 312 314 312 313 317 322 324 328 329 330 326 328 334 336 323 316 291 251 215 205 201 196 199 204 205 207 210 212 212 208 205 197 196 198 193 189 181 173 165 158 152 145 132 118 102 80
251 280 296 301 303 305 307 311 313 320 324 324 326 333 337 337 343 333 331 295 254 209 200 199 201 202 202 202 200 201 201 196 196 191 187 189 190 184 178 173 170 166 162 157 150 139 124 107 88
245 282 298 306 304 303 304 304 311 319 320 322 327 339 343 342 339 337 342 328 210 186 189 188 192 192 194 193 190 189 190 189 188 187 185 189 187 181 176 175 174 173 170 163 155 145 129 111 91
250 269 286 294 297 299 299 303 309 316 317 320 329 344 347 349 347 348 346 333 173 177 185 186 188 188 188 189 188 186 188 188 190 188 188 187 185 183 181 178 177 177 175 168 162 152 134 117 99
251 266 279 285 290 293 297 302 306 314 319 323 331 348 354 352 359 8 9 81 149 160 171 177 181 186 188 189 190 189 189 189 190 191 191 189 188 189 187 185 184 182 179 176 173 168 157 136 108
246 260 269 277 284 290 300 304 308 314 315 326 334 349 3 7 13 29 45 104 132 149 159 166 172 181 187 191 192 191 190 190 190 192 194 195 196 195 193 193 191 188 188 189 191 192 194 195 201
238 255 266 272 278 291 301 304 312 305 303 313 336 1 12 22 31 48 66 110 139 149 162 171 175 179 183 186 188 190 191 192 194 197 199 201 202 201 200 200 199 199 202 208 213 219 227 240 260
242 251 261 272 280 291 300 306 308 304 307 313 325 351 7 31 48 64 73 132 155 169 175 180 182 182 185 191 194 194 195 197 200 202 204 206 206 206 206 206 208 211 215 222 229 237 244 254 267
243 254 260 267 275 285 294 306 305 303 311 309 326 340 351 28 51 64 85 118 160 185 187 184 185 188 189 192 194 198 201 203 204 206 208 210 211 212 212 214 218 221 226 231 238 245 252 260 270
245 252 256 261 268 278 286 296 306 312 316 317 317 331 327 9 43 63 83 131 185 196 201 199 194 195 196 197 200 204 207 210 212 212 213 215 217 218 219 222 228 232 236 241 245 250 256 263 270
240 245 254 261 265 276 282 289 301 304 307 315 316 309 288 311 342 269 237 218 202 200 206 205 203 205 205 204 207 212 214 217 220 220 220 221 223 225 227 230 235 240 245 248 251 255 260 264 269
244 245 253 258 262 269 276 283 288 295 299 303 302 296 281 309 332 311 269 251 234 211 208 212 216 216 218 217 219 221 221 227 227 225 226 227 229 231 234 237 241 245 250 253 256 258 262 266 269
Height
5906 5905 5904 5904 5904 5903 5901 5900 5899 5898 5898 5898 5897 5896 5896 5896 5896 5897 5894 5893 5894 5895 5896 5897 5898 5899 5900 5901 5902 5903 5904 5904 5905 5904 5904 5904 5904 5904 5903 5902 5902 5901 5900 5900 5899 5899 5898 5898 5897
5905 5904 5904 5904 5902 5901 5900 5899 5898 5898 5897 5896 5896 5896 5894 5894 5894 5893 5892 5892 5892 5893 5894 5896 5897 5898 5900 5901 5902 5903 5903 5904 5904 5904 5904 5904 5904 5904 5903 5902 5902 5901 5900 5900 5899 5899 5898 5897 5897
5905 5904 5904 5903 5901 5901 5899 5897 5896 5896 5895 5895 5895 5894 5893 5893 5892 5891 5891 5891 5891 5892 5893 5894 5895 5897 5898 5900 5901 5902 5902 5903 5904 5904 5904 5904 5904 5904 5903 5902 5902 5901 5900 5899 5899 5898 5898 5897 5897
5905 5904 5904 5903 5900 5899 5897 5896 5895 5895 5895 5894 5893 5891 5890 5891 5891 5889 5889 5889 5889 5890 5891 5892 5893 5895 5897 5898 5900 5901 5901 5902 5903 5903 5903 5904 5904 5903 5903 5902 5901 5901 5900 5899 5899 5898 5897 5897 5896
5904 5903 5903 5901 5899 5897 5896 5895 5894 5894 5893 5892 5891 5889 5888 5889 5888 5887 5887 5887 5887 5888 5889 5890 5892 5893 5895 5896 5898 5899 5900 5901 5902 5902 5903 5903 5903 5903 5902 5902 5901 5900 5899 5899 5898 5897 5897 5896 5896
5903 5902 5902 5900 5898 5896 5895 5894 5894 5893 5891 5890 5889 5887 5885 5885 5885 5884 5883 5884 5885 5885 5885 5887 5889 5891 5892 5894 5896 5897 5899 5900 5901 5901 5902 5902 5902 5902 5902 5901 5900 5899 5899 5898 5897 5896 5896 5895 5894
5903 5901 5900 5899 5897 5895 5894 5893 5892 5891 5889 5888 5887 5884 5882 5882 5883 5881 5880 5881 5882 5882 5883 5885 5887 5889 5890 5892 5894 5896 5897 5898 5899 5900 5901 5901 5901 5901 5900 5900 5899 5898 5898 5897 5896 5895 5894 5893 5893
5901 5901 5899 5897 5896 5895 5894 5892 5891 5890 5888 5886 5884 5882 5879 5879 5879 5879 5878 5878 5878 5879 5881 5882 5884 5886 5888 5890 5891 5893 5895 5897 5898 5899 5899 5899 5899 5899 5899 5898 5898 5897 5896 5895 5894 5893 5893 5892 5891
5899 5900 5897 5896 5895 5894 5893 5891 5890 5888 5886 5884 5882 5880 5877 5875 5875 5875 5874 5874 5874 5875 5877 5879 5881 5883 5885 5887 5889 5891 5893 5895 5896 5897 5898 5898 5898 5897 5897 5896 5896 5895 5894 5894 5893 5892 5891 5890 5889
5898 5897 5896 5895 5894 5893 5891 5890 5888 5886 5884 5882 5880 5877 5874 5872 5871 5871 5870 5869 5869 5871 5873 5875 5878 5880 5883 5885 5887 5889 5891 5893 5894 5895 5896 5896 5896 5895 5895 5895 5894 5893 5892 5892 5891 5890 5889 5888 5887
5895 5895 5894 5893 5892 5891 5890 5889 5887 5884 5882 5880 5877 5874 5871 5868 5867 5867 5867 5865 5865 5867 5869 5872 5874 5877 5879 5882 5884 5887 5889 5890 5892 5893 5894 5894 5894 5893 5893 5892 5892 5891 5890 5890 5889 5888 5887 5886 5886
5893 5892 5892 5891 5891 5889 5888 5887 5885 5882 5880 5877 5874 5871 5868 5865 5862 5861 5861 5861 5861 5863 5865 5867 5870 5873 5876 5878 5881 5884 5886 5887 5889 5890 5891 5891 5892 5891 5891 5890 5890 5889 5888 5888 5887 5886 5885 5885 5884
5891 5890 5889 5888 5888 5887 5885 5884 5882 5880 5877 5874 5871 5868 5865 5861 5858 5856 5855 5855 5856 5858 5860 5862 5866 5870 5873 5875 5878 5881 5883 5885 5886 5888 5889 5889 5889 5889 5889 5888 5888 5887 5887 5887 5886 5885 5884 5884 5883
5888 5888 5887 5887 5885 5884 5882 5881 5880 5877 5874 5871 5868 5865 5862 5859 5856 5853 5852 5852 5852 5853 5855 5859 5862 5866 5870 5873 5875 5878 5880 5882 5884 5885 5886 5887 5887 5887 5887 5887 5886 5886 5886 5886 5885 5885 5884 5883 5882
5886 5886 5886 5885 5883 5882 5881 5880 5877 5874 5871 5869 5865 5863 5860 5856 5853 5850 5848 5848 5848 5848 5850 5852 5858 5863 5866 5870 5873 5875 5878 5880 5881 5882 5884 5885 5885 5885 5885 5885 5885 5885 5885 5885 5885 5884 5883 5882 5882
5884 5885 5884 5883 5881 5879 5880 5877 5874 5871 5869 5866 5863 5859 5856 5853 5850 5847 5845 5844 5844 5844 5846 5850 5854 5859 5864 5867 5870 5873 5875 5877 5879 5880 5881 5882 5883 5883 5884 5884 5884 5884 5884 5884 5884 5884 5883 5882 5881
5883 5883 5881 5880 5879 5877 5876 5874 5872 5869 5867 5864 5861 5857 5854 5851 5847 5844 5842 5840 5840 5841 5844 5847 5852 5856 5861 5864 5867 5870 5873 5875 5876 5878 5879 5880 5881 5882 5882 5883 5883 5883 5883 5883 5883 5883 5882 5882 5881
5880 5879 5878 5878 5876 5875 5873 5871 5869 5867 5864 5861 5858 5855 5852 5848 5845 5841 5840 5838 5837 5838 5841 5845 5849 5853 5858 5861 5865 5868 5870 5872 5874 5876 5877 5879 5880 5880 5881 5882 5882 5882 5882 5883 5883 5883 5882 5882 5881
5877 5876 5876 5876 5874 5872 5870 5868 5866 5864 5862 5859 5856 5853 5849 5845 5843 5840 5838 5837 5836 5837 5840 5843 5846 5851 5855 5859 5863 5866 5868 5870 5872 5874 5876 5877 5878 5879 5880 5881 5881 5882 5882 5882 5883 5883 5882 5882 5881
5874 5873 5873 5873 5872 5870 5868 5866 5864 5862 5860 5857 5854 5851 5847 5844 5842 5839 5837 5836 5835 5835 5838 5842 5846 5850 5854 5858 5861 5864 5866 5868 5870 5872 5874 5876 5877 5878 5879 5880 5880 5881 5882 5882 5882 5882 5882 5882 5882
5870 5871 5871 5871 5869 5868 5866 5864 5863 5861 5858 5855 5853 5849 5846 5843 5841 5838 5836 5835 5834 5835 5838 5841 5845 5848 5852 5856 5859 5861 5864 5866 5869 5871 5873 5874 5876 5877 5878 5879 5879 5880 5881 5881 5882 5882 5882 5882 5882
5867 5868 5868 5868 5867 5865 5864 5862 5862 5859 5856 5854 5851 5848 5845 5841 5839 5837 5835 5834 5834 5835 5837 5840 5844 5848 5851 5854 5857 5859 5862 5864 5867 5869 5871 5873 5874 5876 5877 5877 5878 5879 5880 5881 5881 5881 5881 5881 5881
5864 5865 5865 5865 5864 5863 5861 5860 5860 5857 5854 5852 5849 5847 5844 5841 5838 5836 5834 5834 5834 5835 5837 5840 5843 5846 5849 5852 5855 5858 5860 5862 5865 5868 5870 5872 5873 5874 5875 5876 5877 5878 5879 5879 5880 5880 5881 5881 5881
5860 5861 5861 5861 5861 5860 5859 5857 5855 5853 5852 5849 5848 5845 5842 5840 5838 5836 5835 5836 5836 5836 5838 5840 5842 5845 5848 5850 5853 5856 5858 5861 5863 5866 5868 5870 5871 5872 5874 5875 5876 5877 5877 5878 5879 5879 5879 5879 5879
5856 5857 5858 5857 5857 5856 5855 5853 5853 5851 5849 5848 5846 5844 5842 5839 5838 5837 5836 5837 5837 5837 5839 5840 5842 5844 5846 5849 5852 5854 5856 5859 5861 5863 5866 5867 5869 5870 5872 5873 5874 5875 5876 5876 5877 5877 5878 5878 5878
5853 5854 5854 5854 5853 5853 5851 5850 5850 5848 5847 5845 5844 5843 5840 5838 5837 5837 5837 5836 5837 5838 5839 5840 5842 5844 5846 5848 5850 5852 5855 5857 5859 5861 5863 5865 5866 5868 5869 5871 5872 5872 5873 5874 5875 5875 5875 5875 5875
5849 5850 5850 5850 5849 5849 5848 5847 5847 5846 5845 5843 5842 5840 5839 5837 5837 5837 5837 5837 5837 5838 5839 5840 5841 5843 5845 5847 5849 5851 5853 5855 5857 5859 5860 5862 5864 5865 5867 5868 5869 5870 5871 5871 5872 5872 5872 5872 5872
5844 5845 5845 5846 5845 5844 5844 5844 5845 5843 5842 5841 5839 5838 5837 5837 5836 5836 5836 5836 5837 5837 5838 5839 5841 5842 5844 5846 5847 5849 5851 5853 5855 5856 5858 5859 5860 5862 5863 5864 5865 5866 5867 5868 5868 5868 5868 5869 5868
5839 5840 5840 5840 5841 5841 5840 5843 5842 5841 5840 5839 5837 5836 5836 5836 5836 5835 5835 5836 5836 5836 5836 5838 5839 5840 5842 5843 5845 5847 5848 5850 5851 5853 5855 5856 5857 5858 5859 5860 5861 5862 5863 5863 5864 5864 5864 5864 5863
5834 5834 5836 5836 5837 5837 5837 5840 5838 5837 5836 5836 5835 5834 5834 5834 5834 5833 5833 5834 5835 5835 5835 5836 5837 5838 5840 5841 5842 5844 5845 5847 5848 5850 5851 5852 5853 5854 5855 5856 5857 5858 5858 5858 5858 5858 5858 5858 5858